Location: Helsinki
(60.1699°N, 24.9384°E)
Time: 23:30:59
(UTC+02:00)

Altair - Pass Details

Date: 28 October 2020
Orbit: 1502 x 1682 km, 47.2° (Epoch: 25 November)

Event Time Altitude Azimuth Distance (km) Brightness Sun altitude
Rises 03:56:28 0° 175° (S) 4,650 9.9 -27.0°
Reaches altitude 10° 04:02:16 10° 147° (SSE) 3,704 9.6 -26.4°
Maximum altitude 04:05:10 12° 128° (SE) 3,581 9.8 -26.0°
Drops below altitude 10° 04:08:06 10° 110° (ESE) 3,748 10.2 -25.7°
Sets 04:14:02 0° 82° (E) 4,782 11.4 -25.0°
